George, South Africa

2:53 PM SAST on August 17, 2017 (GMT +0200)
George

Weather History for FAGG - January, 2014

Change the Weather History Date:

Friday, January 24, 2014

  Actual Average Record
Temperature  
Mean Temperature 67 °F -  
Max Temperature 75 °F 74 °F 83 °F (2017)
Min Temperature 59 °F 59 °F 59 °F (2014)
Cooling Degree Days 2    
Growing Degree Days 17 (Base 50)    
Moisture  
Dew Point 60 °F    
Average Humidity 75    
Maximum Humidity 94    
Minimum Humidity 58    
Precipitation  
Precipitation 0.04 in - - ()
Sea Level Pressure  
Sea Level Pressure 29.87 in    
Wind  
Wind Speed 6 mph ()    
Max Wind Speed 14 mph    
Max Gust Speed -    
Visibility 7.3 miles    
Events Rain    
Averages and records for this station are not official NWS values.
T = Trace of Precipitation, MM = Missing Value Source: Averaged Metar Reports

Daily Weather History Graph

Daily Weather History Graph

Search for Another Location

Airport or City:

Trip Planner

Search our weather history database for the weather conditions in past years. The results will help you decide how hot, cold, wet, or windy it might be!

Date:

Astronomy

Jan. 24, 2014 Rise Set
Actual Time 5:43 AM SAST 7:41 PM SAST
Civil Twilight 5:15 AM SAST 8:08 PM SAST
Nautical Twilight 4:42 AM SAST 8:42 PM SAST
Astronomical Twilight 4:06 AM SAST 9:18 PM SAST
Moon No Moon Rise 1:13 PM SAST (1/24)
Length of Visible Light 14h 52m
Length of Day
13h 57m
Waning Gibbous, 48% of the Moon is Illuminated
Jan 24
Waning Gibbous
Jan 30
New
Feb 6
First Quarter
Feb 15
Full
Feb 22
Last Quarter

Hourly Weather History & Observations

Time (SAST) Temp. Dew Point Humidity Pressure Visibility Wind Dir Wind Speed Gust Speed Precip Events Conditions
2:00 AM 63 °F 56 °F 72% 29.80 in 12 mi NW 3.5 mph - -  
3:00 AM 62.6 °F 55.4 °F 77% 29.77 in - WNW 3.5 mph - N/A   Clear
5:00 AM 61 °F 52 °F 65% 29.78 in 12 mi North 3.5 mph - -  
5:00 AM 60.8 °F 53.6 °F 77% 29.77 in - North 3.5 mph - N/A   Clear
6:00 AM 60.8 °F 53.6 °F 77% 29.80 in - NW 3.5 mph - N/A   Clear
7:00 AM 64.4 °F 55.4 °F 73% 29.80 in - NW 3.5 mph - N/A   Clear
8:00 AM 69 °F 58 °F 59% 29.84 in 12 mi WNW 6.9 mph - -   Clear
8:00 AM 69.8 °F 57.2 °F 64% 29.83 in - WNW 6.9 mph - N/A   Clear
9:00 AM 71.6 °F 60.8 °F 69% 29.83 in 6.2 mi SW 4.6 mph - N/A   Partly Cloudy
10:00 AM 73.4 °F 62.6 °F 69% 29.83 in 6.2 mi SSW 9.2 mph - N/A   Scattered Clouds
11:00 AM 75 °F 63 °F 58% 29.86 in 12 mi South 11.5 mph - -   Mostly Cloudy
11:00 AM 75.2 °F 62.6 °F 65% 29.86 in 6.2 mi South 11.5 mph - N/A   Scattered Clouds
12:00 PM 73.4 °F 64.4 °F 73% 29.86 in 6.2 mi SSW 10.4 mph - N/A Rain Light Rain
1:00 PM 71.6 °F 64.4 °F 78% 29.86 in 6.2 mi South 12.7 mph - N/A   Mostly Cloudy
2:00 PM 71 °F 62 °F 67% 29.85 in 12 mi South 13.8 mph - -   Partly Cloudy
2:00 PM 71.6 °F 62.6 °F 73% 29.86 in 6.2 mi South 13.8 mph - N/A   Mostly Cloudy
3:00 PM 69.8 °F 62.6 °F 78% 29.86 in 6.2 mi South 12.7 mph - N/A   Mostly Cloudy
4:00 PM 69.8 °F 60.8 °F 73% 29.86 in 6.2 mi SSW 9.2 mph - N/A   Mostly Cloudy
5:00 PM 69 °F 60 °F 65% 29.88 in 9 mi SSW 9.2 mph - -   Mostly Cloudy
5:00 PM 69.8 °F 59.0 °F 68% 29.89 in 6.2 mi SSW 8.1 mph - N/A   Mostly Cloudy
6:00 PM 68.0 °F 60.8 °F 78% 29.89 in 6.2 mi SSW 5.8 mph - N/A   Mostly Cloudy
7:00 PM 66.2 °F 62.6 °F 88% 29.92 in - WSW 5.8 mph - N/A   Light Drizzle
8:00 PM 65 °F 62 °F 87% 29.94 in 2 mi WNW 5.8 mph - - Rain Drizzle
8:00 PM 64.4 °F 62.6 °F 94% 29.95 in 2.2 mi WNW 5.8 mph - N/A   Drizzle
9:00 PM 64.4 °F 62.6 °F 94% 29.98 in 6.2 mi WNW 8.1 mph - N/A   Overcast
10:00 PM 64.4 °F 60.8 °F 88% 30.01 in 6.2 mi NW 6.9 mph - N/A   Mostly Cloudy
11:00 PM 64.4 °F 59.0 °F 83% 30.01 in 6.2 mi West 8.1 mph - N/A   Mostly Cloudy